N221S VDBG-VDPP

Flight info

Callsign N221S
Flight time 0h 36m
Altitude 21000
Route OTBIP Y18 UKMAL DCT DAMAT DAMAT4A
Aircraft C25C/M-SDE2E3FGHRWXY/LB1

Departure

Time 2026-04-23 19:15
Airport Battambang Airport (VDBG)

Arrival

Time 2026-04-23 19:52
Airport Phnom Penh International Airport (VDPP)
Time Latitude Longitude Altitude Speed Heading
2026-04-23 19:05 13.09280 103.22337 43 ft 0 kts 150°
2026-04-23 19:11 13.09278 103.22339 43 ft 3 kts 131°
2026-04-23 19:11 13.09321 103.22362 42 ft 13 kts 321°
2026-04-23 19:11 13.09313 103.22299 42 ft 9 kts 252°
2026-04-23 19:12 13.09299 103.22257 44 ft 10 kts 250°
2026-04-23 19:12 13.09286 103.22222 41 ft 1 kts 258°
2026-04-23 19:12 13.09301 103.22215 41 ft 6 kts 31°
2026-04-23 19:12 13.09334 103.22225 41 ft 5 kts 342°
2026-04-23 19:13 13.09371 103.22210 40 ft 6 kts 338°
2026-04-23 19:13 13.09415 103.22191 40 ft 7 kts 336°
2026-04-23 19:13 13.09445 103.22151 41 ft 8 kts 280°
2026-04-23 19:13 13.09433 103.22087 40 ft 11 kts 249°
2026-04-23 19:14 13.09400 103.22001 39 ft 14 kts 250°
2026-04-23 19:14 13.09366 103.21910 40 ft 13 kts 250°
2026-04-23 19:14 13.09341 103.21823 41 ft 12 kts 264°
2026-04-23 19:14 13.09313 103.21790 42 ft 4 kts 105°
2026-04-23 19:15 13.09327 103.21813 41 ft 7 kts 58°
2026-04-23 19:15 13.09412 103.22032 40 ft 76 kts 68°
2026-04-23 19:15 13.09704 103.22797 190 ft 138 kts 70°
2026-04-23 19:15 13.10057 103.23752 745 ft 153 kts 57°
2026-04-23 19:16 13.10988 103.24292 1311 ft 166 kts 359°
2026-04-23 19:16 13.11999 103.23747 1772 ft 181 kts 299°
2026-04-23 19:16 13.12488 103.22465 2334 ft 199 kts 287°
2026-04-23 19:17 13.13211 103.19465 2103 ft 223 kts 255°
2026-04-23 19:17 13.12397 103.18221 2176 ft 205 kts 212°
2026-04-23 19:17 13.11024 103.17845 1909 ft 213 kts 180°
2026-04-23 19:17 13.09535 103.18182 1562 ft 224 kts 157°
2026-04-23 19:18 13.08306 103.19189 1352 ft 228 kts 130°
2026-04-23 19:18 13.07987 103.20601 1674 ft 206 kts 75°
2026-04-23 19:18 13.09158 103.21394 1025 ft 230 kts 353°
2026-04-23 19:18 13.10580 103.20773 1132 ft 215 kts 333°
2026-04-23 19:19 13.13315 103.20457 1352 ft 202 kts 23°
2026-04-23 19:19 13.14386 103.21351 1334 ft 200 kts 59°
2026-04-23 19:20 13.14487 103.24119 1498 ft 226 kts 121°
2026-04-23 19:20 13.13399 103.25373 1973 ft 246 kts 139°
2026-04-23 19:20 13.12160 103.26607 2865 ft 248 kts 137°
2026-04-23 19:20 13.10906 103.27809 3713 ft 251 kts 137°
2026-04-23 19:21 13.09643 103.29067 4593 ft 254 kts 135°
2026-04-23 19:21 13.07078 103.31616 6263 ft 260 kts 136°
2026-04-23 19:21 13.05764 103.32912 6993 ft 264 kts 136°
2026-04-23 19:22 13.04433 103.34241 7717 ft 268 kts 136°
2026-04-23 19:22 13.03076 103.35578 8430 ft 272 kts 136°
2026-04-23 19:22 13.00305 103.38325 9820 ft 281 kts 135°
2026-04-23 19:23 12.98895 103.39734 10450 ft 284 kts 135°
2026-04-23 19:23 12.97464 103.41142 11128 ft 286 kts 135°
2026-04-23 19:23 12.96034 103.42571 11742 ft 289 kts 135°
2026-04-23 19:24 12.93113 103.45461 12951 ft 295 kts 135°
2026-04-23 19:24 12.91632 103.46926 13536 ft 297 kts 135°
2026-04-23 19:24 12.88648 103.49877 14548 ft 302 kts 135°
2026-04-23 19:25 12.85598 103.52899 15564 ft 307 kts 135°
2026-04-23 19:25 12.82497 103.55969 16513 ft 312 kts 135°
2026-04-23 19:26 12.79370 103.59063 17449 ft 316 kts 135°
2026-04-23 19:26 12.77785 103.60633 17864 ft 319 kts 135°
2026-04-23 19:27 12.74563 103.63818 18621 ft 324 kts 136°
2026-04-23 19:27 12.69658 103.68668 19712 ft 329 kts 135°
2026-04-23 19:28 12.66341 103.71945 20414 ft 333 kts 135°
2026-04-23 19:28 12.63212 103.75538 20781 ft 347 kts 131°
2026-04-23 19:29 12.61584 103.77413 20808 ft 357 kts 130°
2026-04-23 19:29 12.58269 103.81330 20815 ft 375 kts 130°
2026-04-23 19:30 12.54780 103.85434 20821 ft 388 kts 130°
2026-04-23 19:30 12.52998 103.87532 20821 ft 393 kts 130°
2026-04-23 19:30 12.49403 103.91760 20821 ft 393 kts 130°
2026-04-23 19:31 12.47601 103.93879 20822 ft 396 kts 130°
2026-04-23 19:31 12.45842 103.96065 20811 ft 398 kts 124°
2026-04-23 19:31 12.44469 103.98534 20821 ft 400 kts 118°
2026-04-23 19:31 12.43136 104.01048 20822 ft 403 kts 118°
2026-04-23 19:32 12.41826 104.03542 20818 ft 404 kts 118°
2026-04-23 19:32 12.40463 104.06066 20815 ft 406 kts 118°
2026-04-23 19:32 12.39099 104.08604 20829 ft 407 kts 118°
2026-04-23 19:32 12.37736 104.11143 20825 ft 407 kts 118°
2026-04-23 19:33 12.36839 104.12830 20825 ft 408 kts 118°
2026-04-23 19:33 12.35468 104.15381 20830 ft 408 kts 118°
2026-04-23 19:33 12.32729 104.20483 20824 ft 409 kts 118°
2026-04-23 19:34 12.31358 104.23047 20824 ft 410 kts 118°
2026-04-23 19:34 12.29984 104.25598 20828 ft 410 kts 118°
2026-04-23 19:34 12.27253 104.30685 20829 ft 411 kts 118°
2026-04-23 19:35 12.25877 104.33254 20831 ft 411 kts 118°
2026-04-23 19:35 12.24493 104.35821 20829 ft 411 kts 118°
2026-04-23 19:35 12.23119 104.38388 20832 ft 411 kts 118°
2026-04-23 19:35 12.21738 104.40946 20833 ft 411 kts 118°
2026-04-23 19:36 12.20365 104.43509 20833 ft 411 kts 118°
2026-04-23 19:36 12.18981 104.46072 20834 ft 411 kts 118°
2026-04-23 19:36 12.17608 104.48634 20832 ft 412 kts 118°
2026-04-23 19:36 12.16231 104.51182 20717 ft 399 kts 118°
2026-04-23 19:37 12.14921 104.53619 19765 ft 383 kts 118°
2026-04-23 19:37 12.13656 104.55968 18744 ft 372 kts 118°
2026-04-23 19:37 12.12430 104.58254 17706 ft 363 kts 118°
2026-04-23 19:37 12.11235 104.60460 16597 ft 355 kts 118°
2026-04-23 19:38 12.10059 104.62651 15519 ft 348 kts 118°
2026-04-23 19:38 12.08896 104.64799 14476 ft 342 kts 118°
2026-04-23 19:38 12.07762 104.66916 13343 ft 337 kts 118°
2026-04-23 19:38 12.06659 104.68951 11772 ft 315 kts 119°
2026-04-23 19:39 12.05638 104.70854 10271 ft 296 kts 119°
2026-04-23 19:39 12.04664 104.72647 8730 ft 283 kts 119°
2026-04-23 19:39 12.03661 104.74335 7193 ft 274 kts 130°
2026-04-23 19:39 12.02130 104.75436 5671 ft 269 kts 152°
2026-04-23 19:40 12.00603 104.76420 5152 ft 242 kts 146°
2026-04-23 19:40 11.99198 104.77285 5031 ft 231 kts 151°
2026-04-23 19:40 11.97820 104.78118 4813 ft 230 kts 149°
2026-04-23 19:40 11.96455 104.78962 4565 ft 230 kts 149°
2026-04-23 19:41 11.95091 104.79820 4300 ft 230 kts 149°
2026-04-23 19:41 11.93735 104.80651 4044 ft 230 kts 150°
2026-04-23 19:41 11.92380 104.81501 3861 ft 227 kts 149°
2026-04-23 19:41 11.91045 104.82331 3682 ft 219 kts 150°
2026-04-23 19:42 11.89771 104.83128 3495 ft 210 kts 150°
2026-04-23 19:42 11.88540 104.83886 3312 ft 203 kts 150°
2026-04-23 19:42 11.87347 104.84633 3136 ft 198 kts 151°
2026-04-23 19:42 11.86186 104.85351 3025 ft 190 kts 150°
2026-04-23 19:43 11.85100 104.86027 2991 ft 180 kts 152°
2026-04-23 19:43 11.84059 104.86676 2981 ft 170 kts 151°
2026-04-23 19:43 11.83055 104.87295 2982 ft 169 kts 152°
2026-04-23 19:43 11.82052 104.87925 2984 ft 170 kts 151°
2026-04-23 19:44 11.81037 104.88548 2983 ft 170 kts 151°
2026-04-23 19:44 11.80020 104.89185 2981 ft 171 kts 152°
2026-04-23 19:44 11.78998 104.89819 2988 ft 172 kts 150°
2026-04-23 19:44 11.77971 104.90452 2986 ft 172 kts 151°
2026-04-23 19:45 11.76959 104.91088 2985 ft 173 kts 151°
2026-04-23 19:45 11.75925 104.91722 2986 ft 174 kts 150°
2026-04-23 19:45 11.74894 104.92368 2988 ft 174 kts 151°
2026-04-23 19:45 11.73856 104.93010 2990 ft 175 kts 150°
2026-04-23 19:46 11.72816 104.93653 2988 ft 175 kts 151°
2026-04-23 19:46 11.71774 104.94306 2989 ft 175 kts 150°
2026-04-23 19:46 11.70724 104.94950 2967 ft 177 kts 150°
2026-04-23 19:46 11.69650 104.95622 2836 ft 184 kts 151°
2026-04-23 19:47 11.68530 104.96307 2675 ft 191 kts 153°
2026-04-23 19:47 11.67256 104.96563 2512 ft 194 kts 186°
2026-04-23 19:47 11.66004 104.96136 2493 ft 191 kts 216°
2026-04-23 19:47 11.65047 104.95209 2502 ft 187 kts 221°
2026-04-23 19:48 11.64103 104.94282 2377 ft 191 kts 225°
2026-04-23 19:48 11.63196 104.93311 2138 ft 186 kts 223°
2026-04-23 19:48 11.62300 104.92378 1908 ft 183 kts 224°
2026-04-23 19:48 11.61414 104.91459 1665 ft 180 kts 225°
2026-04-23 19:49 11.60578 104.90586 1450 ft 158 kts 225°
2026-04-23 19:49 11.59889 104.89868 1254 ft 123 kts 225°
2026-04-23 19:49 11.59354 104.89306 1082 ft 102 kts 224°
2026-04-23 19:49 11.58866 104.88792 880 ft 100 kts 225°
2026-04-23 19:50 11.58379 104.88289 690 ft 100 kts 225°
2026-04-23 19:50 11.57902 104.87795 635 ft 98 kts 222°
2026-04-23 19:50 11.57412 104.87290 581 ft 102 kts 228°
2026-04-23 19:50 11.56917 104.86747 497 ft 108 kts 224°
2026-04-23 19:51 11.56370 104.86203 395 ft 113 kts 225°
2026-04-23 19:51 11.55821 104.85631 213 ft 110 kts 225°
2026-04-23 19:51 11.55305 104.85091 70 ft 101 kts 224°
2026-04-23 19:51 11.54873 104.84640 57 ft 80 kts 226°
2026-04-23 19:52 11.54529 104.84289 55 ft 44 kts 228°
2026-04-23 19:52 11.54335 104.84082 55 ft 37 kts 226°
2026-04-23 19:52 11.54167 104.83907 57 ft 31 kts 226°
2026-04-23 19:52 11.54148 104.83804 56 ft 16 kts 309°
2026-04-23 19:53 11.54235 104.83741 55 ft 16 kts
2026-04-23 19:53 11.54316 104.83810 55 ft 15 kts 45°
2026-04-23 19:53 11.54389 104.83886 55 ft 15 kts 45°
2026-04-23 19:53 11.54463 104.83963 54 ft 15 kts 45°
2026-04-23 19:54 11.54538 104.84041 54 ft 16 kts 45°
2026-04-23 19:54 11.54614 104.84120 52 ft 16 kts 45°
2026-04-23 19:54 11.54690 104.84200 54 ft 16 kts 45°
2026-04-23 19:54 11.54768 104.84281 54 ft 16 kts 46°
2026-04-23 19:55 11.54846 104.84362 55 ft 16 kts 46°
2026-04-23 19:55 11.54924 104.84442 53 ft 16 kts 44°
2026-04-23 19:55 11.55001 104.84524 55 ft 16 kts 45°
2026-04-23 19:55 11.55066 104.84586 55 ft 9 kts 26°
2026-04-23 19:56 11.55128 104.84594 53 ft 9 kts 18°
2026-04-23 19:56 11.55179 104.84636 52 ft 10 kts 46°
2026-04-23 19:56 11.55229 104.84688 55 ft 10 kts 43°
2026-04-23 19:56 11.55285 104.84737 53 ft 11 kts 39°
2026-04-23 19:57 11.55331 104.84780 55 ft 5 kts
2026-04-23 19:57 11.55362 104.84758 55 ft 6 kts 318°
2026-04-23 19:57 11.55372 104.84750 55 ft 0 kts 319°